| time (UTC) | temp C | wind direction | speed KPH | gust KPH | rain 1hr cm | rain 24hr cm | rain mn cm | humidity % | barometer mb |
| 20260509212215 | 30 | 84 | 8.0 | 9.7 | 0.00 | 0.00 | 0.00 | 75 | 1012.4 |
| 20260509211711 | 31 | 266 | 0.0 | 1.6 | 0.00 | 0.00 | 0.00 | 75 | 1012.3 |
| 20260509211207 | 30 | 101 | 4.8 | 4.8 | 0.00 | 0.00 | 0.00 | 75 | 1012.2 |
| 20260509210703 | 30 | 101 | 1.6 | 1.6 | 0.00 | 0.00 | 0.00 | 76 | 1012.4 |
| 20260509210156 | 28 | 128 | 3.2 | 3.2 | 0.00 | 0.00 | 0.00 | 81 | 1012.4 |
| 20260509205651 | 28 | 93 | 3.2 | 3.2 | 0.00 | 0.00 | 0.00 | 83 | 1012.4 |
| 20260509205150 | 27 | 100 | 0.0 | 0.0 | 0.00 | 0.00 | 0.00 | 83 | 1012.6 |
| 20260509204646 | 28 | 75 | 1.6 | 1.6 | 0.00 | 0.00 | 0.00 | 82 | 1012.7 |
| 20260509204143 | 28 | 28 | 4.8 | 4.8 | 0.00 | 0.00 | 0.00 | 80 | 1012.7 |
| 20260509203638 | 28 | 114 | 1.6 | 1.6 | 0.00 | 0.00 | 0.00 | 80 | 1012.6 |
| 20260509203132 | 29 | 97 | 1.6 | 1.6 | 0.00 | 0.00 | 0.00 | 79 | 1012.7 |
| 20260509202631 | 29 | 113 | 6.4 | 8.0 | 0.00 | 0.00 | 0.00 | 79 | 1012.8 |
| 20260509202127 | 28 | 106 | 4.8 | 4.8 | 0.00 | 0.00 | 0.00 | 81 | 1012.8 |
| 20260509201622 | 28 | 118 | 3.2 | 3.2 | 0.00 | 0.00 | 0.00 | 82 | 1012.9 |
| 20260509201120 | 29 | 88 | 6.4 | 9.7 | 0.00 | 0.00 | 0.00 | 79 | 1013.0 |
| 20260509200615 | 29 | 101 | 6.4 | 8.0 | 0.00 | 0.00 | 0.00 | 81 | 1013.1 |
| 20260509200111 | 29 | 92 | 6.4 | 8.0 | 0.00 | 0.00 | 0.00 | 80 | 1013.1 |
| 20260509195607 | 28 | 141 | 0.0 | 1.6 | 0.00 | 0.00 | 0.00 | 81 | 1013.1 |
| 20260509195102 | 28 | 116 | 3.2 | 3.2 | 0.00 | 0.00 | 0.00 | 85 | 1013.3 |
| 20260509194601 | 28 | 111 | 3.2 | 4.8 | 0.00 | 0.00 | 0.00 | 83 | 1013.3 |
| 20260509194059 | 28 | 95 | 3.2 | 4.8 | 0.00 | 0.00 | 0.00 | 84 | 1013.4 |
| 20260509193555 | 28 | 107 | 1.6 | 1.6 | 0.00 | 0.00 | 0.00 | 84 | 1013.3 |
| 20260509193051 | 28 | 39 | 3.2 | 3.2 | 0.00 | 0.00 | 0.00 | 82 | 1013.4 |
| 20260509192548 | 28 | 118 | 1.6 | 1.6 | 0.00 | 0.00 | 0.00 | 81 | 1013.4 |
| 20260509192042 | 28 | 51 | 1.6 | 1.6 | 0.00 | 0.00 | 0.00 | 83 | 1013.5 |
| 20260509191537 | 28 | 104 | 3.2 | 3.2 | 0.00 | 0.00 | 0.00 | 83 | 1013.5 |
| 20260509191033 | 29 | 325 | 3.2 | 3.2 | 0.00 | 0.00 | 0.00 | 80 | 1013.7 |
| 20260509190530 | 30 | 121 | 1.6 | 1.6 | 0.00 | 0.00 | 0.00 | 79 | 1013.6 |
| 20260509190028 | 30 | 199 | 1.6 | 1.6 | 0.00 | 0.00 | 0.00 | 80 | 1013.6 |
| 20260509185525 | 29 | 228 | 1.6 | 1.6 | 0.00 | 0.00 | 0.00 | 82 | 1013.7 |
| 20260509185021 | 28 | 108 | 3.2 | 3.2 | 0.00 | 0.00 | 0.00 | 82 | 1013.8 |
| 20260509184520 | 28 | 123 | 0.0 | 0.0 | 0.00 | 0.00 | 0.00 | 82 | 1014.0 |
| 20260509184016 | 28 | 174 | 0.0 | 0.0 | 0.00 | 0.00 | 0.00 | 83 | 1014.0 |
| 20260509183511 | 28 | 197 | 1.6 | 1.6 | 0.00 | 0.00 | 0.00 | 83 | 1014.0 |
| 20260509183007 | 28 | 116 | 3.2 | 3.2 | 0.00 | 0.00 | 0.00 | 83 | 1014.2 |
| 20260509182504 | 27 | 225 | 1.6 | 3.2 | 0.00 | 0.00 | 0.00 | 87 | 1014.1 |
| 20260509182001 | 27 | 93 | 4.8 | 4.8 | 0.00 | 0.00 | 0.00 | 87 | 1014.2 |
| 20260509181459 | 26 | 151 | 1.6 | 3.2 | 0.00 | 0.00 | 0.00 | 89 | 1014.2 |
| 20260509180956 | 26 | 84 | 0.0 | 1.6 | 0.00 | 0.00 | 0.00 | 89 | 1014.5 |
| 20260509180451 | 26 | 128 | 3.2 | 4.8 | 0.00 | 0.00 | 0.00 | 89 | 1014.4 |
| 20260509175949 | 26 | 70 | 1.6 | 1.6 | 0.00 | 0.00 | 0.00 | 90 | 1014.6 |
| 20260509175445 | 26 | 89 | 3.2 | 3.2 | 0.00 | 0.00 | 0.00 | 90 | 1014.4 |
| 20260509174942 | 26 | 106 | 6.4 | 8.0 | 0.00 | 0.00 | 0.00 | 90 | 1014.5 |
| 20260509174438 | 26 | 82 | 1.6 | 3.2 | 0.00 | 0.00 | 0.00 | 89 | 1014.6 |
| 20260509173933 | 27 | 44 | 3.2 | 4.8 | 0.00 | 0.00 | 0.00 | 86 | 1014.5 |
| 20260509173433 | 27 | 238 | 1.6 | 3.2 | 0.00 | 0.00 | 0.00 | 83 | 1014.6 |
| 20260509172929 | 27 | 208 | 1.6 | 1.6 | 0.00 | 0.00 | 0.00 | 84 | 1014.5 |
| 20260509172426 | 28 | 233 | 3.2 | 3.2 | 0.00 | 0.00 | 0.00 | 83 | 1014.6 |
| 20260509171922 | 27 | 132 | 0.0 | 1.6 | 0.00 | 0.00 | 0.00 | 83 | 1014.5 |
| 20260509171418 | 28 | 160 | 1.6 | 1.6 | 0.00 | 0.00 | 0.00 | 83 | 1014.5 |
| 20260509170915 | 28 | 190 | 1.6 | 1.6 | 0.00 | 0.00 | 0.00 | 85 | 1014.4 |
| 20260509170410 | 27 | 133 | 1.6 | 1.6 | 0.00 | 0.00 | 0.00 | 86 | 1014.1 |
| 20260509165907 | 27 | 160 | 3.2 | 4.8 | 0.00 | 0.00 | 0.00 | 87 | 1014.4 |
| 20260509165400 | 27 | 149 | 1.6 | 3.2 | 0.00 | 0.00 | 0.00 | 88 | 1014.9 |
| 20260509164856 | 26 | 142 | 0.0 | 1.6 | 0.00 | 0.00 | 0.00 | 90 | 1014.8 |
| 20260509164353 | 26 | 139 | 0.0 | 1.6 | 0.00 | 0.00 | 0.00 | 92 | 1014.7 |
| 20260509163849 | 25 | 160 | 0.0 | 1.6 | 0.00 | 0.00 | 0.00 | 92 | 1015.0 |
| 20260509163346 | 25 | 278 | 1.6 | 3.2 | 0.00 | 0.00 | 0.00 | 92 | 1015.0 |
| 20260509162845 | 25 | 207 | 0.0 | 0.0 | 0.00 | 0.00 | 0.00 | 92 | 1015.2 |
| 20260509162344 | 25 | 260 | 3.2 | 3.2 | 0.00 | 0.00 | 0.00 | 92 | 1015.3 |
| 20260509161840 | 25 | 172 | 1.6 | 1.6 | 0.00 | 0.00 | 0.00 | 92 | 1015.3 |
| 20260509161336 | 25 | 193 | 0.0 | 1.6 | 0.00 | 0.00 | 0.00 | 93 | 1015.4 |
| 20260509160832 | 25 | 169 | 1.6 | 1.6 | 0.00 | 0.00 | 0.00 | 94 | 1015.5 |
| 20260509160328 | 25 | 243 | 1.6 | 3.2 | 0.00 | 0.00 | 0.00 | 95 | 1015.2 |
| 20260509155823 | 25 | 156 | 0.0 | 0.0 | 0.00 | 0.00 | 0.00 | 95 | 1015.2 |
| 20260509155320 | 25 | 181 | 0.0 | 1.6 | 0.00 | 0.00 | 0.00 | 95 | 1015.4 |
| 20260509154816 | 25 | 177 | 0.0 | 1.6 | 0.00 | 0.00 | 0.00 | 96 | 1015.4 |
| 20260509154313 | 25 | 180 | 0.0 | 0.0 | 0.00 | 0.00 | 0.00 | 97 | 1015.3 |
| 20260509153810 | 25 | 172 | 3.2 | 4.8 | 0.00 | 0.00 | 0.00 | 97 | 1015.1 |
| 20260509153306 | 24 | 193 | 1.6 | 3.2 | 0.00 | 0.00 | 0.00 | 99 | 1015.3 |
| 20260509152803 | 24 | 163 | 1.6 | 1.6 | 0.00 | 0.00 | 0.00 | 99 | 1015.3 |
| 20260509152259 | 24 | 156 | 1.6 | 1.6 | 0.00 | 0.00 | 0.00 | 99 | 1015.3 |
| 20260509151757 | 23 | 202 | 0.0 | 0.0 | 0.00 | 0.00 | 0.00 | 99 | 1015.1 |
| 20260509151253 | 24 | 198 | 0.0 | 1.6 | 0.00 | 0.00 | 0.00 | 99 | 1015.0 |
| 20260509150752 | 24 | 111 | 0.0 | 1.6 | 0.00 | 0.00 | 0.00 | 99 | 1015.0 |
| 20260509150249 | 23 | 168 | 0.0 | 1.6 | 0.00 | 0.00 | 0.00 | 99 | 1014.8 |
| 20260509145746 | 23 | 159 | 1.6 | 3.2 | 0.00 | 0.00 | 0.00 | 99 | 1014.7 |
| 20260509145245 | 23 | 157 | 1.6 | 3.2 | 0.00 | 0.00 | 0.00 | 99 | 1014.6 |
| 20260509144742 | 23 | 170 | 0.0 | 0.0 | 0.00 | 0.00 | 0.00 | 99 | 1014.9 |
| 20260509144239 | 23 | 256 | 3.2 | 3.2 | 0.00 | 0.00 | 0.00 | 99 | 1014.4 |
| 20260509143736 | 23 | 174 | 1.6 | 3.2 | 0.00 | 0.00 | 0.00 | 99 | 1013.9 |
| 20260509143234 | 23 | 179 | 3.2 | 3.2 | 0.00 | 0.00 | 0.00 | 99 | 1014.0 |
| 20260509142730 | 23 | 172 | 3.2 | 3.2 | 0.00 | 0.00 | 0.00 | 99 | 1013.8 |
| 20260509142226 | 23 | 208 | 1.6 | 1.6 | 0.00 | 0.00 | 0.00 | 99 | 1013.7 |
| 20260509141722 | 23 | 190 | 4.8 | 4.8 | 0.00 | 0.00 | 0.00 | 99 | 1013.8 |
| 20260509141220 | 23 | 150 | 3.2 | 3.2 | 0.00 | 0.00 | 0.00 | 99 | 1013.8 |
| 20260509140716 | 23 | 182 | 0.0 | 1.6 | 0.00 | 0.00 | 0.00 | 99 | 1014.0 |
| 20260509140213 | 23 | 156 | 4.8 | 4.8 | 0.00 | 0.00 | 0.00 | 99 | 1014.3 |
| 20260509135710 | 23 | 154 | 1.6 | 1.6 | 0.00 | 0.00 | 0.00 | 99 | 1014.2 |
| 20260509135208 | 23 | 163 | 0.0 | 1.6 | 0.00 | 0.00 | 0.00 | 99 | 1014.1 |
| 20260509134705 | 22 | 186 | 0.0 | 0.0 | 0.00 | 0.00 | 0.00 | 99 | 1014.5 |
| 20260509134202 | 22 | 171 | 3.2 | 3.2 | 0.00 | 0.00 | 0.00 | 99 | 1014.6 |
| 20260509133659 | 22 | 166 | 1.6 | 1.6 | 0.00 | 0.00 | 0.00 | 99 | 1014.4 |
| 20260509133156 | 22 | 173 | 1.6 | 1.6 | 0.00 | 0.00 | 0.00 | 99 | 1014.7 |
| 20260509132654 | 22 | 156 | 0.0 | 1.6 | 0.00 | 0.00 | 0.00 | 99 | 1014.9 |
| 20260509132153 | 22 | 171 | 0.0 | 0.0 | 0.00 | 0.00 | 0.00 | 99 | 1014.9 |
| 20260509131648 | 22 | 224 | 1.6 | 1.6 | 0.00 | 0.00 | 0.00 | 99 | 1014.8 |
| 20260509131145 | 22 | 224 | 0.0 | 0.0 | 0.00 | 0.00 | 0.00 | 99 | 1015.0 |
| 20260509130641 | 22 | 225 | 0.0 | 0.0 | 0.00 | 0.00 | 0.00 | 99 | 1014.8 |
| 20260509130138 | 22 | 225 | 0.0 | 0.0 | 0.00 | 0.00 | 0.00 | 99 | 1015.1 |
| 20260509125635 | 22 | 225 | 0.0 | 0.0 | 0.00 | 0.00 | 0.00 | 99 | 1015.0 |
| 20260509125131 | 22 | 213 | 0.0 | 1.6 | 0.00 | 0.00 | 0.00 | 99 | 1015.2 |
| 20260509124628 | 22 | 211 | 1.6 | 1.6 | 0.00 | 0.00 | 0.00 | 99 | 1015.1 |
| 20260509124125 | 22 | 170 | 0.0 | 0.0 | 0.00 | 0.00 | 0.00 | 99 | 1014.9 |
| 20260509123623 | 22 | 159 | 0.0 | 0.0 | 0.00 | 0.00 | 0.00 | 99 | 1014.9 |
| 20260509123119 | 22 | 160 | 0.0 | 0.0 | 0.00 | 0.00 | 0.00 | 99 | 1015.0 |
| 20260509122615 | 22 | 160 | 0.0 | 0.0 | 0.00 | 0.00 | 0.00 | 99 | 1014.8 |
| 20260509122113 | 22 | 160 | 0.0 | 0.0 | 0.00 | 0.00 | 0.00 | 99 | 1014.9 |
| 20260509121609 | 22 | 160 | 0.0 | 0.0 | 0.00 | 0.00 | 0.00 | 99 | 1014.9 |
| 20260509121107 | 22 | 159 | 0.0 | 0.0 | 0.00 | 0.00 | 0.00 | 99 | 1014.7 |
| 20260509120605 | 22 | 160 | 0.0 | 1.6 | 0.00 | 0.00 | 0.00 | 99 | 1015.0 |
| 20260509115559 | 22 | 158 | 0.0 | 0.0 | 0.00 | 0.00 | 0.00 | 99 | 1014.7 |
| 20260509115057 | 22 | 140 | 1.6 | 1.6 | 0.00 | 0.00 | 0.00 | 99 | 1014.4 |
| 20260509114555 | 22 | 162 | 0.0 | 0.0 | 0.00 | 0.00 | 0.00 | 99 | 1014.1 |
| 20260509114054 | 22 | 155 | 0.0 | 1.6 | 0.00 | 0.00 | 0.00 | 99 | 1014.2 |
| 20260509113552 | 22 | 176 | 3.2 | 3.2 | 0.00 | 0.00 | 0.00 | 99 | 1014.1 |
| 20260509113049 | 22 | 134 | 0.0 | 0.0 | 0.00 | 0.00 | 0.00 | 99 | 1014.0 |
| 20260509112545 | 22 | 160 | 0.0 | 1.6 | 0.00 | 0.00 | 0.00 | 99 | 1013.9 |
| 20260509112042 | 22 | 187 | 0.0 | 1.6 | 0.00 | 0.00 | 0.00 | 99 | 1013.9 |
| 20260509111540 | 22 | 175 | 1.6 | 1.6 | 0.00 | 0.00 | 0.00 | 99 | 1014.0 |
| 20260509111037 | 22 | 187 | 1.6 | 1.6 | 0.00 | 0.00 | 0.00 | 99 | 1013.3 |
| 20260509110533 | 22 | 147 | 0.0 | 1.6 | 0.00 | 0.00 | 0.00 | 99 | 1013.4 |
| 20260509110030 | 22 | 147 | 0.0 | 0.0 | 0.00 | 0.00 | 0.00 | 99 | 1013.6 |
| 20260509105529 | 22 | 147 | 1.6 | 1.6 | 0.00 | 0.00 | 0.00 | 99 | 1013.7 |
| 20260509105026 | 22 | 147 | 0.0 | 0.0 | 0.00 | 0.00 | 0.00 | 99 | 1013.7 |
| 20260509104523 | 22 | 147 | 0.0 | 0.0 | 0.00 | 0.00 | 0.00 | 99 | 1013.9 |
| 20260509104020 | 22 | 147 | 1.6 | 1.6 | 0.00 | 0.00 | 0.00 | 99 | 1014.1 |
| 20260509103518 | 22 | 147 | 0.0 | 0.0 | 0.00 | 0.00 | 0.00 | 99 | 1013.9 |
| 20260509103016 | 22 | 147 | 0.0 | 0.0 | 0.00 | 0.00 | 0.00 | 99 | 1013.8 |
| 20260509102513 | 22 | 147 | 0.0 | 0.0 | 0.00 | 0.00 | 0.00 | 99 | 1013.9 |
| 20260509102009 | 22 | 146 | 1.6 | 1.6 | 0.00 | 0.00 | 0.00 | 99 | 1014.1 |
| 20260509101506 | 22 | 147 | 0.0 | 0.0 | 0.00 | 0.00 | 0.00 | 99 | 1014.1 |
| 20260509101003 | 22 | 147 | 0.0 | 0.0 | 0.00 | 0.00 | 0.00 | 99 | 1014.5 |
| 20260509100500 | 22 | 146 | 0.0 | 0.0 | 0.00 | 0.00 | 0.00 | 99 | 1014.4 |
| 20260509095956 | 22 | 147 | 0.0 | 0.0 | 0.00 | 0.00 | 0.00 | 99 | 1014.1 |
| 20260509095453 | 22 | 146 | 0.0 | 0.0 | 0.00 | 0.00 | 0.00 | 99 | 1013.8 |
| 20260509094951 | 22 | 147 | 0.0 | 0.0 | 0.00 | 0.00 | 0.00 | 99 | 1014.0 |
| 20260509094447 | 22 | 147 | 0.0 | 0.0 | 0.00 | 0.00 | 0.00 | 99 | 1014.1 |
| 20260509093944 | 22 | 147 | 0.0 | 0.0 | 0.00 | 0.00 | 0.00 | 99 | 1014.0 |
| 20260509093442 | 22 | 147 | 0.0 | 0.0 | 0.00 | 0.00 | 0.00 | 99 | 1013.9 |
| 20260509092940 | 22 | 147 | 0.0 | 0.0 | 0.00 | 0.00 | 0.00 | 99 | 1013.9 |
| 20260509092437 | 22 | 147 | 0.0 | 0.0 | 0.00 | 0.00 | 0.00 | 99 | 1013.9 |
| 20260509091936 | 22 | 147 | 0.0 | 0.0 | 0.00 | 0.00 | 0.00 | 99 | 1014.0 |
| 20260509091432 | 22 | 147 | 0.0 | 0.0 | 0.00 | 0.00 | 0.00 | 99 | 1014.1 |
| 20260509090930 | 22 | 147 | 0.0 | 0.0 | 0.00 | 0.00 | 0.00 | 99 | 1013.9 |
| 20260509090427 | 22 | 147 | 0.0 | 0.0 | 0.00 | 0.00 | 0.00 | 99 | 1014.1 |
| 20260509085924 | 22 | 147 | 0.0 | 0.0 | 0.00 | 0.00 | 0.00 | 99 | 1014.1 |
| 20260509085421 | 22 | 147 | 0.0 | 0.0 | 0.00 | 0.00 | 0.00 | 99 | 1014.3 |
| 20260509084917 | 22 | 147 | 0.0 | 0.0 | 0.00 | 0.00 | 0.00 | 99 | 1013.9 |
| 20260509084414 | 22 | 147 | 0.0 | 0.0 | 0.00 | 0.00 | 0.00 | 99 | 1013.8 |
| 20260509083912 | 22 | 147 | 0.0 | 0.0 | 0.00 | 0.00 | 0.00 | 99 | 1014.0 |
| 20260509083409 | 22 | 147 | 0.0 | 0.0 | 0.00 | 0.00 | 0.00 | 99 | 1014.3 |
| 20260509082905 | 22 | 147 | 0.0 | 0.0 | 0.00 | 0.00 | 0.00 | 99 | 1014.2 |
| 20260509082403 | 22 | 147 | 0.0 | 0.0 | 0.00 | 0.00 | 0.00 | 99 | 1014.2 |
| 20260509081859 | 22 | 147 | 0.0 | 0.0 | 0.00 | 0.00 | 0.00 | 99 | 1014.4 |
| 20260509081356 | 22 | 147 | 0.0 | 0.0 | 0.00 | 0.00 | 0.00 | 99 | 1014.3 |
| 20260509080854 | 22 | 147 | 0.0 | 0.0 | 0.00 | 0.00 | 0.00 | 99 | 1014.4 |
| 20260509080352 | 22 | 147 | 0.0 | 0.0 | 0.00 | 0.00 | 0.00 | 99 | 1014.3 |
| 20260509075850 | 22 | 151 | 0.0 | 1.6 | 0.00 | 0.00 | 0.00 | 99 | 1014.1 |
| 20260509075347 | 22 | 133 | 3.2 | 3.2 | 0.00 | 0.00 | 0.00 | 99 | 1014.1 |
| 20260509074844 | 21 | 167 | 0.0 | 0.0 | 0.00 | 0.00 | 0.00 | 99 | 1014.1 |
| 20260509074342 | 21 | 144 | 1.6 | 1.6 | 0.00 | 0.00 | 0.00 | 99 | 1014.0 |
| 20260509073838 | 21 | 158 | 1.6 | 3.2 | 0.00 | 0.00 | 0.00 | 99 | 1013.9 |
| 20260509073334 | 21 | 169 | 1.6 | 3.2 | 0.00 | 0.00 | 0.00 | 99 | 1013.9 |
| 20260509072831 | 21 | 132 | 3.2 | 3.2 | 0.00 | 0.00 | 0.00 | 99 | 1014.1 |
| 20260509072327 | 21 | 178 | 1.6 | 1.6 | 0.00 | 0.00 | 0.00 | 99 | 1014.3 |
| 20260509071824 | 21 | 141 | 1.6 | 1.6 | 0.00 | 0.00 | 0.00 | 99 | 1014.3 |
| 20260509071321 | 21 | 183 | 0.0 | 1.6 | 0.00 | 0.00 | 0.00 | 99 | 1014.2 |
| 20260509070818 | 21 | 184 | 0.0 | 0.0 | 0.00 | 0.00 | 0.00 | 99 | 1014.7 |
| 20260509070315 | 21 | 184 | 0.0 | 0.0 | 0.00 | 0.00 | 0.00 | 99 | 1014.6 |
| 20260509065811 | 21 | 184 | 1.6 | 1.6 | 0.00 | 0.00 | 0.00 | 99 | 1014.5 |
| 20260509065307 | 21 | 177 | 1.6 | 1.6 | 0.00 | 0.00 | 0.00 | 99 | 1014.3 |
| 20260509064803 | 21 | 143 | 0.0 | 1.6 | 0.00 | 0.00 | 0.00 | 99 | 1014.1 |
| 20260509064301 | 21 | 168 | 3.2 | 3.2 | 0.00 | 0.00 | 0.00 | 99 | 1014.1 |
| 20260509063759 | 21 | 131 | 1.6 | 1.6 | 0.00 | 0.00 | 0.00 | 99 | 1013.9 |
| 20260509063255 | 21 | 166 | 0.0 | 1.6 | 0.00 | 0.00 | 0.00 | 99 | 1014.2 |
| 20260509062752 | 21 | 179 | 1.6 | 1.6 | 0.00 | 0.00 | 0.00 | 99 | 1014.3 |
| 20260509062249 | 21 | 160 | 0.0 | 0.0 | 0.00 | 0.00 | 0.00 | 99 | 1014.4 |
| 20260509061746 | 21 | 181 | 1.6 | 3.2 | 0.00 | 0.00 | 0.00 | 99 | 1014.4 |
| 20260509061244 | 21 | 187 | 0.0 | 0.0 | 0.00 | 0.00 | 0.00 | 99 | 1014.3 |
| 20260509060741 | 21 | 164 | 0.0 | 0.0 | 0.00 | 0.00 | 0.00 | 99 | 1014.4 |
| 20260509060237 | 21 | 145 | 1.6 | 1.6 | 0.00 | 0.00 | 0.00 | 99 | 1014.5 |
| 20260509055733 | 21 | 167 | 1.6 | 1.6 | 0.00 | 0.08 | 0.08 | 99 | 1014.6 |
| 20260509055229 | 21 | 184 | 1.6 | 1.6 | 0.00 | 0.08 | 0.08 | 99 | 1014.6 |
| 20260509054726 | 21 | 180 | 1.6 | 1.6 | 0.00 | 0.08 | 0.08 | 99 | 1014.5 |
| 20260509054223 | 21 | 172 | 4.8 | 4.8 | 0.00 | 0.08 | 0.08 | 99 | 1014.8 |
| 20260509053722 | 21 | 144 | 3.2 | 3.2 | 0.00 | 0.08 | 0.08 | 99 | 1014.9 |
| 20260509053218 | 21 | 195 | 0.0 | 1.6 | 0.00 | 0.08 | 0.08 | 99 | 1014.7 |
| 20260509052716 | 21 | 147 | 3.2 | 3.2 | 0.00 | 0.08 | 0.08 | 99 | 1014.6 |
| 20260509052213 | 21 | 135 | 3.2 | 3.2 | 0.00 | 0.08 | 0.08 | 99 | 1014.4 |
| 20260509051711 | 21 | 208 | 3.2 | 3.2 | 0.00 | 0.08 | 0.08 | 99 | 1014.6 |
| 20260509051208 | 21 | 174 | 1.6 | 3.2 | 0.00 | 0.08 | 0.08 | 99 | 1014.9 |
| 20260509050705 | 21 | 181 | 0.0 | 1.6 | 0.00 | 0.08 | 0.08 | 99 | 1014.9 |
| 20260509050202 | 21 | 142 | 3.2 | 3.2 | 0.00 | 0.08 | 0.08 | 99 | 1014.9 |
| 20260509045659 | 21 | 170 | 1.6 | 1.6 | 0.00 | 0.08 | 0.08 | 99 | 1014.8 |
| 20260509045156 | 21 | 159 | 0.0 | 1.6 | 0.00 | 0.08 | 0.08 | 99 | 1014.7 |
| 20260509044653 | 21 | 158 | 1.6 | 3.2 | 0.00 | 0.08 | 0.08 | 99 | 1014.8 |
| 20260509044150 | 21 | 146 | 0.0 | 0.0 | 0.00 | 0.08 | 0.08 | 99 | 1014.4 |
| 20260509043647 | 21 | 166 | 1.6 | 1.6 | 0.00 | 0.08 | 0.08 | 99 | 1014.4 |
| 20260509043142 | 21 | 166 | 0.0 | 0.0 | 0.00 | 0.08 | 0.08 | 99 | 1014.6 |
| 20260509042639 | 21 | 144 | 1.6 | 1.6 | 0.00 | 0.08 | 0.08 | 99 | 1014.5 |
| 20260509042135 | 21 | 167 | 1.6 | 1.6 | 0.00 | 0.08 | 0.08 | 99 | 1014.6 |
| 20260509041632 | 21 | 133 | 1.6 | 1.6 | 0.00 | 0.08 | 0.08 | 99 | 1014.6 |
| 20260509041129 | 21 | 176 | 1.6 | 1.6 | 0.00 | 0.08 | 0.08 | 99 | 1014.9 |
| 20260509040628 | 21 | 165 | 4.8 | 4.8 | 0.00 | 0.08 | 0.08 | 99 | 1014.5 |
| 20260509040125 | 21 | 155 | 0.0 | 1.6 | 0.00 | 0.08 | 0.08 | 99 | 1014.4 |
| 20260509035621 | 21 | 175 | 1.6 | 3.2 | 0.00 | 0.08 | 0.08 | 99 | 1014.5 |
| 20260509035118 | 21 | 168 | 1.6 | 1.6 | 0.00 | 0.08 | 0.08 | 99 | 1014.3 |
| 20260509034616 | 21 | 171 | 4.8 | 8.0 | 0.00 | 0.08 | 0.08 | 99 | 1014.4 |
| 20260509034113 | 21 | 148 | 4.8 | 8.0 | 0.00 | 0.08 | 0.08 | 99 | 1014.4 |
| 20260509033610 | 21 | 169 | 4.8 | 4.8 | 0.00 | 0.08 | 0.08 | 99 | 1014.4 |
| 20260509033106 | 21 | 155 | 1.6 | 3.2 | 0.00 | 0.08 | 0.08 | 99 | 1014.2 |
| 20260509032604 | 21 | 148 | 1.6 | 1.6 | 0.00 | 0.08 | 0.08 | 99 | 1014.3 |
| 20260509032100 | 21 | 156 | 3.2 | 4.8 | 0.00 | 0.08 | 0.08 | 99 | 1014.3 |
| 20260509031559 | 21 | 163 | 1.6 | 3.2 | 0.00 | 0.08 | 0.08 | 99 | 1014.2 |
| 20260509031055 | 21 | 90 | 3.2 | 3.2 | 0.00 | 0.08 | 0.08 | 98 | 1014.1 |
| 20260509030554 | 21 | 163 | 1.6 | 3.2 | 0.00 | 0.08 | 0.08 | 98 | 1014.3 |
| 20260509030050 | 21 | 207 | 3.2 | 3.2 | 0.00 | 0.08 | 0.08 | 98 | 1014.2 |
| 20260509025546 | 21 | 149 | 1.6 | 3.2 | 0.00 | 0.08 | 0.08 | 98 | 1014.0 |
| 20260509025042 | 21 | 162 | 3.2 | 3.2 | 0.00 | 0.08 | 0.08 | 98 | 1014.1 |
| 20260509024538 | 21 | 168 | 4.8 | 4.8 | 0.00 | 0.08 | 0.08 | 97 | 1013.9 |
| 20260509024034 | 21 | 174 | 3.2 | 3.2 | 0.00 | 0.08 | 0.08 | 97 | 1013.7 |
| 20260509023532 | 21 | 113 | 1.6 | 1.6 | 0.00 | 0.08 | 0.08 | 97 | 1013.8 |
| 20260509023029 | 21 | 107 | 4.8 | 8.0 | 0.00 | 0.08 | 0.08 | 97 | 1013.8 |
| 20260509022525 | 21 | 171 | 4.8 | 4.8 | 0.00 | 0.08 | 0.08 | 97 | 1013.9 |
| 20260509022023 | 21 | 163 | 4.8 | 4.8 | 0.00 | 0.08 | 0.08 | 97 | 1013.8 |
| 20260509021520 | 21 | 160 | 4.8 | 4.8 | 0.00 | 0.08 | 0.08 | 97 | 1013.8 |
| 20260509021017 | 21 | 161 | 3.2 | 4.8 | 0.00 | 0.08 | 0.08 | 97 | 1013.7 |
| 20260509020515 | 21 | 135 | 1.6 | 4.8 | 0.00 | 0.08 | 0.08 | 97 | 1013.8 |
| 20260509020012 | 21 | 130 | 1.6 | 1.6 | 0.00 | 0.08 | 0.08 | 96 | 1013.7 |
| 20260509015511 | 21 | 156 | 0.0 | 0.0 | 0.00 | 0.08 | 0.08 | 96 | 1013.5 |
| 20260509015008 | 21 | 158 | 0.0 | 0.0 | 0.00 | 0.08 | 0.08 | 96 | 1013.6 |
| 20260509014504 | 22 | 172 | 1.6 | 3.2 | 0.00 | 0.08 | 0.08 | 95 | 1013.5 |
| 20260509014000 | 22 | 159 | 0.0 | 1.6 | 0.00 | 0.08 | 0.08 | 95 | 1013.5 |
| 20260509013458 | 22 | 158 | 0.0 | 1.6 | 0.00 | 0.08 | 0.08 | 95 | 1013.6 |
| 20260509012953 | 22 | 148 | 1.6 | 1.6 | 0.00 | 0.08 | 0.08 | 95 | 1013.6 |
| 20260509012450 | 22 | 160 | 1.6 | 1.6 | 0.00 | 0.08 | 0.08 | 94 | 1013.6 |
| 20260509011947 | 22 | 142 | 0.0 | 0.0 | 0.00 | 0.08 | 0.08 | 94 | 1013.6 |
| 20260509011444 | 22 | 128 | 1.6 | 1.6 | 0.00 | 0.08 | 0.08 | 93 | 1013.7 |
| 20260509010942 | 22 | 142 | 0.0 | 0.0 | 0.00 | 0.08 | 0.08 | 93 | 1013.6 |
| 20260509010439 | 22 | 161 | 1.6 | 1.6 | 0.00 | 0.08 | 0.08 | 93 | 1013.6 |
| 20260509005936 | 22 | 108 | 1.6 | 1.6 | 0.00 | 0.08 | 0.08 | 92 | 1013.6 |
| 20260509005434 | 23 | 142 | 1.6 | 1.6 | 0.00 | 0.08 | 0.08 | 92 | 1013.8 |
| 20260509004934 | 23 | 166 | 3.2 | 4.8 | 0.00 | 0.08 | 0.08 | 92 | 1013.9 |
| 20260509004431 | 23 | 47 | 3.2 | 3.2 | 0.00 | 0.08 | 0.08 | 92 | 1013.8 |
| 20260509003929 | 23 | 158 | 3.2 | 3.2 | 0.00 | 0.08 | 0.08 | 91 | 1013.6 |
| 20260509003427 | 23 | 174 | 0.0 | 1.6 | 0.00 | 0.08 | 0.08 | 91 | 1013.6 |
| 20260509002923 | 23 | 121 | 1.6 | 3.2 | 0.00 | 0.08 | 0.08 | 91 | 1013.4 |
| 20260509002421 | 23 | 196 | 4.8 | 8.0 | 0.00 | 0.08 | 0.08 | 91 | 1013.3 |
| 20260509001913 | 23 | 134 | 0.0 | 1.6 | 0.00 | 0.08 | 0.08 | 92 | 1013.4 |
| 20260509001409 | 23 | 135 | 4.8 | 4.8 | 0.00 | 0.08 | 0.08 | 91 | 1013.2 |
| 20260509000906 | 23 | 138 | 1.6 | 1.6 | 0.00 | 0.08 | 0.08 | 91 | 1013.6 |
| 20260509000404 | 23 | 88 | 4.8 | 4.8 | 0.00 | 0.08 | 0.08 | 91 | 1013.6 |
| 20260508235900 | 23 | 99 | 3.2 | 4.8 | 0.00 | 0.08 | 0.08 | 90 | 1013.8 |
| 20260508235357 | 23 | 103 | 1.6 | 1.6 | 0.00 | 0.08 | 0.08 | 90 | 1013.9 |
| 20260508234854 | 23 | 97 | 3.2 | 3.2 | 0.00 | 0.08 | 0.08 | 91 | 1014.1 |
| 20260508234350 | 23 | 165 | 1.6 | 1.6 | 0.00 | 0.08 | 0.08 | 91 | 1014.0 |
| 20260508233849 | 23 | 115 | 1.6 | 3.2 | 0.00 | 0.08 | 0.08 | 92 | 1013.8 |
| 20260508233348 | 23 | 133 | 0.0 | 0.0 | 0.00 | 0.08 | 0.08 | 91 | 1013.9 |
| 20260508232845 | 23 | 110 | 1.6 | 1.6 | 0.00 | 0.08 | 0.08 | 91 | 1013.9 |
| 20260508232341 | 23 | 148 | 0.0 | 1.6 | 0.00 | 0.08 | 0.08 | 91 | 1014.0 |
| 20260508231839 | 23 | 143 | 0.0 | 0.0 | 0.00 | 0.08 | 0.08 | 91 | 1013.8 |
| 20260508231335 | 23 | 137 | 1.6 | 1.6 | 0.00 | 0.08 | 0.08 | 91 | 1013.9 |
| 20260508230832 | 23 | 179 | 1.6 | 1.6 | 0.00 | 0.08 | 0.08 | 91 | 1013.8 |
| 20260508230328 | 23 | 161 | 1.6 | 3.2 | 0.00 | 0.08 | 0.08 | 91 | 1013.8 |
| 20260508225827 | 23 | 92 | 4.8 | 4.8 | 0.00 | 0.08 | 0.08 | 91 | 1013.7 |
| 20260508225323 | 23 | 132 | 1.6 | 1.6 | 0.00 | 0.08 | 0.08 | 91 | 1013.7 |
| 20260508224821 | 23 | 158 | 1.6 | 1.6 | 0.00 | 0.08 | 0.08 | 90 | 1013.6 |
| 20260508224318 | 24 | 110 | 4.8 | 4.8 | 0.00 | 0.08 | 0.08 | 89 | 1013.6 |
| 20260508223816 | 24 | 171 | 1.6 | 1.6 | 0.00 | 0.08 | 0.08 | 90 | 1013.8 |
| 20260508223313 | 24 | 118 | 1.6 | 3.2 | 0.00 | 0.08 | 0.08 | 90 | 1013.8 |
| 20260508222810 | 24 | 138 | 1.6 | 3.2 | 0.00 | 0.08 | 0.08 | 91 | 1013.5 |
| 20260508222307 | 24 | 79 | 6.4 | 8.0 | 0.00 | 0.08 | 0.08 | 89 | 1013.8 |
| 20260508221804 | 24 | 159 | 3.2 | 4.8 | 0.00 | 0.08 | 0.08 | 90 | 1013.7 |
| 20260508221259 | 24 | 95 | 1.6 | 3.2 | 0.00 | 0.08 | 0.08 | 91 | 1013.9 |
| 20260508220755 | 24 | 101 | 1.6 | 3.2 | 0.00 | 0.08 | 0.08 | 91 | 1013.8 |
| 20260508220252 | 24 | 91 | 1.6 | 3.2 | 0.00 | 0.08 | 0.08 | 90 | 1013.9 |
| 20260508215749 | 24 | 96 | 4.8 | 4.8 | 0.00 | 0.08 | 0.08 | 90 | 1013.8 |
| 20260508215246 | 24 | 94 | 3.2 | 4.8 | 0.00 | 0.08 | 0.08 | 90 | 1013.8 |
| 20260508214743 | 24 | 126 | 4.8 | 4.8 | 0.00 | 0.08 | 0.08 | 89 | 1013.9 |
| 20260508214240 | 25 | 128 | 3.2 | 3.2 | 0.00 | 0.08 | 0.08 | 87 | 1013.8 |
| 20260508213736 | 25 | 169 | 3.2 | 4.8 | 0.00 | 0.08 | 0.08 | 88 | 1013.8 |
| 20260508213233 | 25 | 152 | 1.6 | 1.6 | 0.00 | 0.08 | 0.08 | 85 | 1014.0 |
| 20260508212729 | 25 | 109 | 9.7 | 11.3 | 0.00 | 0.08 | 0.08 | 85 | 1013.7 |